Погода в Липовом

Украина / Полтавская область     49°28′55″N   32°43′39″E
темп.,
°C
ветер,
м/с
пор.,
м/с
влажн.,
%
обл.,
%
осадки,
мм/ч
давл.,
гПа
погр.,
м
17 октября, вс
вс1700:00+9ссз2379100 0.1 101988
03:00+9с2479100 0.1 1019132
06:00+8с3681100 0.0 1019198
09:00+8с358050 0.0 1019218
12:00+12ссз336233 0.0 1020744
15:00+14ссз445335 0.0 10181198
18:00+10сз356324 0.0 101987
21:00+8сз347022 0.0 101954
18 октября, пн
пн1800:00+7сз33735 0.0 101934
03:00+6сз3377100 0.0 102041
06:00+5сз3377100 0.0 102061
09:00+7зсз3569100 0.0 1020198
12:00+11зсз4551100 0.0 1020968
15:00+12зсз4547100 0.0 10181249
18:00+10з3555100 0.0 1019142
21:00+9зсз4771100 0.0 10191055
19 октября, вт
вт1900:00+8зсз588090 0.2 1018526
03:00+6зсз398899 0.3 1018221
06:00+8зсз3680100 0.1 1017443
09:00+6с61186100 6.4 1020853
12:00+9ссз710515 0.0 10221315
15:00+9ссз79435 0.0 10231574
18:00+7сз49545 0.0 1024237
21:00+5сз511615 0.0 1025291
20 октября, ср
ср2000:00+4сз48735 0.0 1027190
03:00+3сз357838 0.0 102886
06:00+2сз358264 0.0 102886
09:00+4сз23735 0.0 1029155
12:00+8зюз335470 0.0 1029886
15:00+9зюз3549100 0.0 1027898
18:00+8ююз335319 0.0 102639
21:00+7ююз4957100 0.0 1025157
21 октября, чт
чт2100:00+7ююз6115476 0.0 1024280
03:00+7ююз6126238 0.0 1022331
06:00+7ююз7157398 0.0 1021408
09:00+9ююз81774100 0.0 1020600
12:00+13ююз91564100 0.0 1018890
15:00+15ююз81456100 0.0 10161171
18:00+13ююз81460100 0.0 1015676
21:00+11ююз8167199 0.0 1014539